FW0797 Weather Reports


Display with metric or nautical units.
time (UTC)temp
F
wind
direction
speed
MPH
gust
MPH
rain 1hr
in
rain 24hr
in
rain mn
in
humidity
%
barometer
mb
20180122122329 30 317 2.0 9.0 0.00 0.00 0.00 76 1026.6
20180122120831 30 308 1.0 6.0 0.00 0.00 0.00 77 1026.0
20180122115326 30 96 2.0 9.0 0.00 0.00 0.00 76 1025.8
20180122113821 30 85 2.0 8.0 0.00 0.00 0.00 75 1025.2
20180122112320 30 32 2.0 9.0 0.00 0.00 0.00 75 1025.1
20180122110817 31 321 3.0 9.0 0.00 0.00 0.00 74 1025.1
20180122105317 31 302 2.0 8.0 0.00 0.00 0.00 74 1024.9
20180122103813 31 352 0.0 8.0 0.00 0.00 0.00 73 1025.0
20180122102307 31 345 2.0 4.0 0.00 0.00 0.00 74 1024.9
20180122100804 31 335 1.0 4.0 0.00 0.00 0.00 73 1024.5
20180122095305 32 193 1.0 7.0 0.00 0.00 0.00 73 1024.5
20180122093804 32 35 2.0 7.0 0.00 0.00 0.00 73 1024.2
20180122092301 32 326 0.0 5.0 0.00 0.00 0.00 73 1024.0
20180122090800 32 327 0.0 8.0 0.00 0.00 0.00 74 1024.0
20180122085259 32 238 0.0 3.0 0.00 0.00 0.00 75 1023.8
20180122083756 33 165 1.0 6.0 0.00 0.00 0.00 76 1023.7
20180122082258 33 119 0.0 5.0 0.00 0.00 0.00 77 1023.7
20180122080755 33 5 0.0 3.0 0.00 0.00 0.00 77 1023.7
20180122075252 33 352 0.0 4.0 0.00 0.00 0.00 78 1023.7
20180122073751 33 300 0.0 3.0 0.00 0.00 0.00 79 1023.6
20180122072252 34 335 0.0 2.0 0.00 0.00 0.00 78 1023.7
20180122070750 34 8 0.0 3.0 0.00 0.00 0.00 78 1023.5
20180122065247 34 8 2.0 4.0 0.00 0.00 0.00 78 1023.3
20180122063748 34 8 0.0 3.0 0.00 0.00 0.00 76 1023.1
20180122062246 34 354 0.0 3.0 0.00 0.00 0.00 77 1023.1
20180122060746 34 347 1.0 5.0 0.00 0.00 0.00 78 1022.9
20180122055240 34 338 2.0 5.0 0.00 0.00 0.00 82 1022.7
20180122053740 35 349 2.0 4.0 0.00 0.00 0.00 78 1022.6
20180122052236 34 27 2.0 4.0 0.00 0.00 0.00 83 1022.7
20180122050732 32 349 2.0 4.0 0.00 0.00 0.00 88 1022.7
20180122045232 32 322 1.0 4.0 0.00 0.00 0.00 88 1022.6
20180122043726 34 349 0.0 1.0 0.00 0.00 0.00 84 1022.4
20180122042224 36 106 0.0 0.0 0.00 0.00 0.00 80 1022.3
20180122040723 36 127 1.0 1.0 0.00 0.00 0.00 79 1022.3
20180122035226 36 124 0.0 1.0 0.00 0.00 0.00 78 1022.2
20180122033725 36 118 0.0 2.0 0.00 0.00 0.00 76 1022.3
20180122032222 37 126 1.0 3.0 0.00 0.00 0.00 72 1022.2
20180122030721 37 127 1.0 2.0 0.00 0.00 0.00 72 1022.1
20180122025222 37 108 1.0 2.0 0.00 0.00 0.00 71 1022.1
20180122023721 37 108 0.0 1.0 0.00 0.00 0.00 71 1022.1
20180122022220 37 106 0.0 0.0 0.00 0.00 0.00 71 1022.3
20180122020719 36 101 1.0 2.0 0.00 0.00 0.00 72 1022.1
20180122015219 37 120 0.0 1.0 0.00 0.00 0.00 71 1021.9
20180122013719 36 107 1.0 3.0 0.00 0.00 0.00 72 1021.9
20180122012218 36 150 0.0 1.0 0.00 0.00 0.00 71 1021.8
20180122010714 38 114 0.0 1.0 0.00 0.00 0.00 69 1021.8
20180122005214 37 136 0.0 1.0 0.00 0.00 0.00 70 1021.8
20180122003714 38 28 0.0 0.0 0.00 0.00 0.00 66 1021.7
20180122002214 38 28 0.0 0.0 0.00 0.00 0.00 66 1021.9
20180122000716 38 28 0.0 0.0 0.00 0.00 0.00 65 1022.1
20180121235210 38 356 0.0 0.0 0.00 0.00 0.00 67 1021.8
20180121233714 38 356 0.0 1.0 0.00 0.00 0.00 68 1021.9
20180121232211 38 335 0.0 1.0 0.00 0.00 0.00 69 1021.6
20180121230706 38 328 0.0 4.0 0.00 0.00 0.00 68 1021.4
20180121225204 36 332 1.0 2.0 0.00 0.00 0.00 78 1021.3
20180121223706 36 330 0.0 3.0 0.00 0.00 0.00 78 1021.2
20180121222158 38 298 0.0 4.0 0.00 0.00 0.00 71 1020.8
20180121220700 38 224 0.0 2.0 0.00 0.00 0.00 71 1020.6
20180121215158 38 330 0.0 2.0 0.00 0.00 0.00 71 1020.5
20180121213658 38 320 0.0 2.0 0.00 0.00 0.00 72 1020.5
20180121212153 38 349 0.0 1.0 0.00 0.00 0.00 72 1020.2
20180121210655 38 360 0.0 0.0 0.00 0.00 0.00 72 1020.0
20180121205153 39 353 0.0 1.0 0.00 0.00 0.00 71 1019.6
20180121203648 39 257 0.0 3.0 0.00 0.00 0.00 70 1019.3
20180121202151 39 255 0.0 2.0 0.00 0.00 0.00 70 1019.2
20180121200650 40 217 0.0 4.0 0.00 0.00 0.00 69 1019.1
20180121195146 40 221 0.0 3.0 0.00 0.00 0.00 68 1019.0
20180121193645 40 259 0.0 2.0 0.00 0.00 0.00 67 1018.8
20180121192148 40 252 0.0 3.0 0.00 0.00 0.00 66 1018.7
20180121190644 40 224 0.0 3.0 0.00 0.00 0.00 67 1018.5
20180121185143 40 180 0.0 1.0 0.00 0.00 0.00 67 1018.3
20180121183648 40 247 0.0 4.0 0.00 0.00 0.00 69 1018.3
20180121182146 40 205 1.0 4.0 0.00 0.00 0.00 68 1018.6
20180121180641 40 260 0.0 5.0 0.00 0.00 0.00 64 1018.5
20180121175141 40 205 0.0 3.0 0.00 0.01 0.00 65 1018.4
20180121173639 40 23 0.0 4.0 0.00 0.01 0.00 66 1018.4
20180121172141 40 345 1.0 2.0 0.00 0.01 0.00 66 1018.3
20180121170638 40 255 0.0 3.0 0.00 0.01 0.00 65 1018.3
20180121165138 40 213 1.0 3.0 0.00 0.01 0.00 66 1018.3
20180121163638 40 250 0.0 2.0 0.00 0.01 0.00 66 1018.5
20180121162138 41 243 0.0 2.0 0.00 0.01 0.00 66 1018.6
20180121160637 41 238 0.0 4.0 0.00 0.01 0.00 65 1018.8
20180121155138 41 222 2.0 5.0 0.00 0.01 0.00 68 1019.2
20180121153634 40 149 0.0 4.0 0.00 0.01 0.00 69 1019.2
20180121152133 40 241 0.0 5.0 0.00 0.01 0.00 68 1019.1
20180121150632 40 245 0.0 2.0 0.00 0.01 0.00 67 1019.1
20180121145135 40 246 0.0 2.0 0.00 0.01 0.00 68 1018.9
20180121143629 40 260 0.0 2.0 0.00 0.01 0.00 69 1018.6
20180121142130 39 162 1.0 2.0 0.00 0.01 0.00 71 1018.6
20180121140626 41 201 2.0 4.0 0.00 0.01 0.00 66 1018.3
20180121135122 39 205 1.0 2.0 0.00 0.01 0.00 71 1018.2
20180121133619 38 306 0.0 3.0 0.00 0.01 0.00 69 1018.1
20180121132122 36 340 1.0 5.0 0.00 0.01 0.00 72 1017.7
20180121130616 36 335 1.0 3.0 0.00 0.01 0.00 72 1017.5
20180121125112 37 275 2.0 6.0 0.00 0.01 0.00 70 1017.3
20180121123614 38 316 2.0 4.0 0.00 0.01 0.00 70 1017.1